KB3HLL Weather Reports


Display with metric or nautical units.
time (UTC)temp
F
wind
direction
speed
MPH
gust
MPH
rain 1hr
in
rain 24hr
in
rain mn
in
humidity
%
barometer
mb
20260509224118 51 148 5.0 6.0 0.00 0.00 0.30 100 1006.8
20260509223618 51 155 4.0 6.0 0.00 0.00 0.30 100 1006.8
20260509223117 51 152 4.0 5.0 0.00 0.00 0.30 100 1006.9
20260509222617 52 130 6.0 7.0 0.00 0.00 0.30 100 1007.0
20260509222121 52 159 5.0 7.0 0.00 0.00 0.30 100 1007.0
20260509221617 51 133 7.0 11.0 0.00 0.00 0.30 100 1006.8
20260509221118 51 135 6.0 9.0 0.00 0.00 0.30 100 1006.7
20260509220619 51 132 4.0 6.0 0.00 0.00 0.30 100 1006.8
20260509220120 51 129 6.0 7.0 0.00 0.00 0.30 100 1006.8
20260509215617 51 155 4.0 5.0 0.00 0.00 0.30 100 1006.9
20260509215117 51 153 3.0 5.0 0.00 0.00 0.30 100 1006.9
20260509214618 51 136 5.0 7.0 0.00 0.00 0.30 100 1006.8
20260509214117 51 145 5.0 6.0 0.00 0.00 0.30 100 1006.9
20260509213620 51 145 3.0 4.0 0.00 0.00 0.30 100 1007.1
20260509213119 51 174 4.0 6.0 0.00 0.00 0.30 100 1007.1
20260509212618 50 143 1.0 1.0 0.00 0.00 0.30 100 1007.1
20260509212117 51 175 2.0 2.0 0.00 0.00 0.30 100 1007.2
20260509211617 51 191 2.0 3.0 0.00 0.00 0.30 100 1007.4
20260509211118 51 169 3.0 4.0 0.00 0.00 0.30 100 1007.5
20260509210619 51 146 3.0 4.0 0.00 0.00 0.30 100 1007.6
20260509210119 51 156 4.0 4.0 0.00 0.00 0.30 100 1007.7
20260509205618 51 145 3.0 3.0 0.00 0.00 0.30 100 1007.4
20260509205117 51 194 3.0 4.0 0.02 0.00 0.30 100 1007.3
20260509204619 51 156 4.0 4.0 0.02 0.00 0.30 100 1007.2
20260509204118 51 240 2.0 3.0 0.02 0.00 0.30 100 1007.2
20260509203618 50 232 1.0 1.0 0.03 0.00 0.30 100 1007.4
20260509203118 50 242 1.0 1.0 0.03 0.00 0.30 100 1007.5
20260509202617 50 201 4.0 7.0 0.03 0.00 0.30 100 1007.5
20260509202118 49 235 2.0 4.0 0.03 0.00 0.31 100 1007.5
20260509201617 49 224 3.0 5.0 0.03 0.00 0.31 100 1007.6
20260509201118 49 222 3.0 4.0 0.03 0.00 0.31 100 1007.7
20260509200618 49 226 3.0 5.0 0.03 0.00 0.31 100 1007.8
20260509200119 49 205 4.0 10.0 0.03 0.00 0.31 100 1008.0
20260509195617 49 193 2.0 3.0 0.01 0.00 0.31 100 1008.1
20260509195118 49 224 4.0 7.0 0.01 0.00 0.29 100 1008.2
20260509194617 49 190 2.0 3.0 0.01 0.00 0.29 100 1008.3
20260509194117 49 201 4.0 6.0 0.01 0.00 0.28 99 1008.3
20260509193617 49 189 3.0 4.0 0.01 0.00 0.28 99 1008.3
20260509193117 49 184 5.0 7.0 0.01 0.00 0.28 99 1008.4
20260509192617 49 142 3.0 5.0 0.02 0.00 0.28 99 1008.4
20260509192117 49 182 4.0 5.0 0.02 0.00 0.29 100 1008.2
20260509191617 49 215 3.0 5.0 0.03 0.00 0.29 100 1008.3
20260509191125 48 166 3.0 5.0 0.03 0.00 0.29 100 1008.4
20260509190617 48 211 4.0 5.0 0.03 0.00 0.29 100 1008.3
20260509190118 48 214 4.0 6.0 0.03 0.00 0.29 99 1008.4
20260509185619 48 177 2.0 3.0 0.03 0.00 0.29 99 1008.5
20260509185117 48 174 4.0 7.0 0.03 0.00 0.28 99 1008.4
20260509184617 48 187 3.0 5.0 0.04 0.00 0.28 99 1008.3
20260509184118 48 155 4.0 4.0 0.04 0.00 0.28 99 1008.4
20260509183617 48 151 4.0 6.0 0.04 0.00 0.28 99 1008.4
20260509183119 48 220 2.0 3.0 0.04 0.00 0.28 99 1008.4
20260509182618 48 145 5.0 7.0 0.05 0.00 0.28 99 1008.4
20260509182117 48 167 5.0 6.0 0.05 0.00 0.27 99 1008.4
20260509181617 48 143 4.0 6.0 0.05 0.00 0.27 99 1008.4
20260509181118 48 155 4.0 6.0 0.05 0.00 0.27 99 1008.4
20260509180617 48 144 4.0 7.0 0.06 0.00 0.26 99 1008.4
20260509180117 48 145 6.0 8.0 0.06 0.00 0.25 99 1008.3
20260509175619 48 143 4.0 7.0 0.06 0.00 0.25 99 1008.3
20260509175117 48 141 5.0 7.0 0.06 0.00 0.25 99 1008.3
20260509174618 47 147 4.0 7.0 0.06 0.00 0.25 99 1008.3
20260509174117 47 149 6.0 8.0 0.06 0.00 0.25 99 1008.3
20260509173620 47 144 6.0 9.0 0.06 0.00 0.23 99 1008.3
20260509173118 47 153 4.0 6.0 0.07 0.00 0.23 99 1008.3
20260509172619 47 139 7.0 10.0 0.07 0.00 0.23 99 1008.3
20260509172118 47 146 5.0 9.0 0.07 0.00 0.24 99 1008.3
20260509171620 47 147 6.0 9.0 0.07 0.00 0.23 99 1008.2
20260509171118 47 147 6.0 11.0 0.06 0.00 0.23 99 1008.3
20260509170618 47 140 6.0 8.0 0.06 0.00 0.22 99 1008.3
20260509170118 47 140 6.0 8.0 0.04 0.00 0.22 99 1008.3
20260509165618 47 138 6.0 9.0 0.04 0.00 0.21 99 1008.3
20260509165120 47 145 6.0 10.0 0.04 0.00 0.20 99 1008.3
20260509164619 47 137 6.0 10.0 0.02 0.00 0.20 99 1008.3
20260509164118 47 146 8.0 11.0 0.02 0.00 0.19 99 1008.3
20260509163618 47 144 6.0 9.0 0.02 0.00 0.18 99 1008.2
20260509163119 47 152 6.0 11.0 0.02 0.00 0.18 99 1008.3
20260509162618 47 139 5.0 7.0 0.02 0.00 0.17 99 1008.2
20260509162118 46 144 6.0 8.0 0.02 0.00 0.17 99 1008.3
20260509161618 46 150 6.0 9.0 0.04 0.00 0.17 99 1008.4
20260509161119 46 154 6.0 8.0 0.04 0.00 0.16 99 1008.5
20260509160618 46 148 5.0 6.0 0.04 0.00 0.16 99 1008.4
20260509160118 46 148 5.0 6.0 0.05 0.00 0.16 99 1008.5
20260509155620 46 139 7.0 9.0 0.05 0.00 0.16 99 1008.4
20260509155118 46 141 5.0 7.0 0.05 0.00 0.15 100 1008.5
20260509154617 46 139 7.0 9.0 0.05 0.00 0.15 100 1008.6
20260509154117 46 160 6.0 7.0 0.06 0.00 0.15 100 1008.6
20260509153618 46 146 6.0 9.0 0.06 0.00 0.14 100 1008.6
20260509153118 46 162 6.0 8.0 0.06 0.00 0.14 100 1008.6
20260509152618 46 147 6.0 8.0 0.07 0.00 0.14 100 1008.7
20260509152118 46 147 5.0 7.0 0.07 0.00 0.14 99 1008.7
20260509151618 45 144 4.0 6.0 0.06 0.00 0.13 99 1008.7
20260509151117 45 151 6.0 8.0 0.06 0.00 0.13 99 1008.7
20260509150617 45 164 6.0 8.0 0.06 0.00 0.12 99 1008.7
20260509150119 45 150 6.0 7.0 0.06 0.00 0.12 99 1008.7
20260509145619 45 137 6.0 7.0 0.06 0.00 0.11 99 1008.7
20260509145119 45 166 6.0 6.0 0.06 0.00 0.11 99 1008.7
20260509144617 45 151 5.0 7.0 0.04 0.00 0.10 99 1008.7
20260509144120 45 153 6.0 9.0 0.04 0.00 0.10 99 1008.8
20260509143617 45 137 7.0 10.0 0.03 0.00 0.09 99 1008.6
20260509143119 45 147 8.0 11.0 0.03 0.00 0.09 99 1008.5
20260509142618 45 140 8.0 11.0 0.02 0.00 0.08 99 1008.4
20260509142121 45 143 6.0 9.0 0.02 0.00 0.06 99 1008.5
20260509141618 45 145 7.0 9.0 0.01 0.00 0.06 99 1008.5
20260509141119 45 155 7.0 9.0 0.00 0.00 0.06 99 1008.5
20260509140619 45 148 5.0 7.0 0.00 0.00 0.05 99 1008.5
20260509140119 45 134 6.0 7.0 0.00 0.00 0.05 99 1008.4
20260509135618 45 146 6.0 8.0 0.00 0.00 0.04 99 1008.3
20260509135119 45 142 5.0 7.0 0.00 0.00 0.04 99 1008.2
20260509134618 45 143 6.0 7.0 0.00 0.00 0.04 99 1008.3
20260509134117 45 148 6.0 7.0 0.00 0.00 0.04 99 1008.5
20260509133618 45 132 6.0 8.0 0.00 0.00 0.04 99 1008.5
20260509133120 45 142 4.0 5.0 0.00 0.00 0.04 99 1008.5
20260509132618 45 144 6.0 7.0 0.00 0.00 0.04 99 1008.6
20260509132117 45 144 5.0 7.0 0.00 0.00 0.04 99 1008.5
20260509131617 45 149 6.0 8.0 0.00 0.00 0.04 99 1008.6
20260509131118 45 152 6.0 9.0 0.00 0.00 0.04 99 1009.0
20260509130617 46 146 6.0 8.0 0.00 0.00 0.04 99 1009.6
20260509130117 46 150 6.0 7.0 0.00 0.00 0.04 99 1009.9
20260509125618 46 156 4.0 5.0 0.00 0.00 0.04 99 1009.8
20260509125117 46 160 6.0 6.0 0.00 0.00 0.04 99 1010.2
20260509124618 46 161 5.0 6.0 0.00 0.00 0.04 99 1010.6
20260509124117 46 168 5.0 8.0 0.00 0.00 0.04 99 1010.9
20260509123618 46 149 7.0 9.0 0.00 0.00 0.04 99 1011.2
20260509123119 46 161 5.0 6.0 0.00 0.00 0.04 99 1011.0
20260509122617 46 155 4.0 6.0 0.00 0.00 0.04 99 1010.9
20260509122118 46 156 5.0 7.0 0.00 0.00 0.04 99 1011.2
20260509121618 46 150 5.0 7.0 0.00 0.00 0.04 99 1011.4
20260509121117 46 148 5.0 6.0 0.00 0.00 0.04 100 1011.6
20260509120618 46 161 5.0 6.0 0.00 0.00 0.04 100 1011.7
20260509120117 46 150 6.0 7.0 0.00 0.00 0.04 99 1011.6
20260509115618 46 165 5.0 6.0 0.00 0.00 0.04 99 1011.3
20260509115118 45 158 6.0 8.0 0.00 0.00 0.04 99 1010.7
20260509114618 45 142 6.0 8.0 0.00 0.00 0.04 99 1010.2
20260509114119 45 141 5.0 7.0 0.00 0.00 0.04 99 1010.2
20260509113617 45 143 7.0 9.0 0.00 0.00 0.04 99 1010.3
20260509113118 46 140 6.0 7.0 0.00 0.00 0.04 99 1010.6
20260509112619 46 141 6.0 8.0 0.00 0.00 0.04 99 1010.8
20260509112119 46 152 6.0 8.0 0.00 0.00 0.04 99 1010.9
20260509111617 46 141 6.0 9.0 0.00 0.00 0.04 99 1010.9
20260509111120 46 149 5.0 7.0 0.00 0.00 0.04 99 1010.9
20260509110621 46 130 5.0 7.0 0.00 0.00 0.04 99 1010.8
20260509110118 46 143 7.0 10.0 0.00 0.00 0.04 99 1010.7
20260509105618 45 154 6.0 8.0 0.00 0.00 0.04 99 1009.9
20260509105119 45 206 2.0 5.0 0.00 0.00 0.04 99 1010.0
20260509104617 45 131 9.0 11.0 0.00 0.00 0.04 99 1009.2
20260509104120 45 156 7.0 9.0 0.00 0.00 0.04 99 1009.1
20260509103617 45 135 8.0 11.0 0.00 0.00 0.04 99 1008.8
20260509103119 45 125 9.0 12.0 0.00 0.00 0.04 99 1008.3
20260509102617 45 127 8.0 13.0 0.00 0.00 0.04 99 1008.3
20260509102117 45 127 8.0 12.0 0.00 0.00 0.04 99 1008.4
20260509101617 45 131 9.0 12.0 0.00 0.00 0.04 99 1008.4
20260509101117 44 130 8.0 11.0 0.00 0.00 0.04 99 1008.5
20260509100619 44 126 8.0 12.0 0.00 0.00 0.04 99 1008.6
20260509100117 44 129 7.0 10.0 0.00 0.00 0.04 99 1008.7
20260509095618 44 130 7.0 11.0 0.00 0.00 0.04 99 1008.7
20260509095118 44 129 6.0 9.0 0.00 0.00 0.04 99 1008.8
20260509094619 44 127 6.0 7.0 0.00 0.00 0.04 99 1008.8
20260509094117 44 134 6.0 8.0 0.00 0.00 0.04 99 1008.9
20260509093618 44 127 5.0 7.0 0.00 0.00 0.04 99 1009.0
20260509093118 44 126 6.0 8.0 0.00 0.00 0.04 99 1008.9
20260509092617 44 121 6.0 7.0 0.00 0.00 0.04 99 1009.0
20260509092117 44 132 6.0 8.0 0.00 0.00 0.04 99 1009.2
20260509091617 44 129 6.0 7.0 0.00 0.00 0.04 99 1009.3
20260509091117 44 124 6.0 8.0 0.00 0.00 0.04 99 1009.3
20260509090618 44 117 5.0 6.0 0.00 0.00 0.04 99 1009.2
20260509090119 44 129 7.0 9.0 0.00 0.00 0.04 99 1009.1
20260509085617 44 129 7.0 9.0 0.00 0.00 0.04 99 1009.1
20260509085119 44 114 6.0 8.0 0.00 0.00 0.04 99 1009.0
20260509084617 44 124 7.0 9.0 0.00 0.00 0.04 99 1009.1
20260509084117 44 132 6.0 7.0 0.00 0.00 0.04 99 1009.2
20260509083617 44 125 6.0 6.0 0.00 0.00 0.04 99 1009.2
20260509083120 44 128 5.0 6.0 0.00 0.00 0.04 99 1009.1
20260509082618 44 124 5.0 7.0 0.00 0.00 0.04 99 1009.0
20260509082119 44 121 6.0 7.0 0.00 0.00 0.04 99 1008.9
20260509081617 44 110 4.0 5.0 0.01 0.00 0.04 99 1008.9
20260509081119 44 134 4.0 4.0 0.02 0.00 0.04 99 1008.9
20260509080618 44 100 3.0 4.0 0.02 0.00 0.04 99 1008.9
20260509080120 44 143 4.0 4.0 0.02 0.00 0.04 99 1008.9
20260509075627 44 117 4.0 5.0 0.02 0.00 0.04 99 1008.7
20260509075117 45 129 3.0 4.0 0.02 0.00 0.04 99 1008.7
20260509074617 45 96 1.0 3.0 0.03 0.00 0.04 99 1008.8
20260509074117 45 132 4.0 5.0 0.03 0.00 0.04 99 1008.7
20260509073617 45 116 3.0 4.0 0.04 0.00 0.04 99 1008.8
20260509073119 45 119 2.0 2.0 0.04 0.00 0.04 99 1009.0
20260509072617 45 123 2.0 3.0 0.05 0.00 0.04 99 1009.4
20260509072117 45 0 0.0 0.0 0.05 0.00 0.05 99 1009.6
20260509071617 45 0 0.0 0.0 0.03 0.00 0.05 99 1009.5
20260509071117 45 0 0.0 0.0 0.03 0.00 0.05 99 1009.6
20260509070617 45 0 0.0 0.0 0.03 0.00 0.04 99 1009.6
20260509070120 45 341 0.0 1.0 0.02 0.00 0.03 99 1009.6
20260509065623 45 327 2.0 2.0 0.02 0.00 0.03 99 1009.4
20260509065118 45 335 2.0 2.0 0.02 0.00 0.03 99 1009.5
20260509064617 45 340 3.0 4.0 0.02 0.00 0.02 99 1009.6
20260509064118 45 335 3.0 5.0 0.01 0.00 0.02 99 1009.9
20260509063618 45 344 4.0 6.0 0.01 0.00 0.02 99 1010.1
20260509063117 45 333 3.0 4.0 0.01 0.00 0.01 99 1010.2
20260509062618 46 335 3.0 4.0 0.00 0.00 0.01 99 1010.5
20260509062118 46 327 3.0 3.0 0.00 0.00 0.01 99 1010.9
20260509061618 46 317 2.0 2.0 0.00 0.00 0.00 99 1011.2
20260509061117 46 308 3.0 4.0 0.00 0.00 0.00 99 1011.7
20260509060618 46 303 1.0 2.0 0.00 0.00 0.00 99 1011.8
20260509060119 46 268 2.0 2.0 0.00 0.00 0.00 99 1011.8
20260509055618 45 281 1.0 2.0 0.00 0.00 0.00 99 1011.3
20260509055117 45 271 2.0 2.0 0.00 0.00 0.00 99 1011.1
20260509054621 45 283 2.0 2.0 0.00 0.00 0.00 99 1010.8
20260509054118 45 294 0.0 1.0 0.00 0.00 0.00 99 1010.3
20260509053617 45 302 1.0 1.0 0.00 0.00 0.00 99 1010.2
20260509053117 45 0 0.0 0.0 0.00 0.00 0.00 99 1010.2
20260509052617 45 0 0.0 0.0 0.00 0.00 0.00 99 1010.2
20260509052117 45 205 1.0 2.0 0.00 0.00 0.00 99 1010.2
20260509051617 45 218 2.0 2.0 0.00 0.00 0.00 99 1010.2
20260509051119 45 306 2.0 3.0 0.00 0.00 0.00 99 1010.2
20260509050618 45 320 2.0 3.0 0.00 0.00 0.00 99 1010.0
20260509050119 45 317 3.0 4.0 0.00 0.00 0.00 99 1010.0
20260509045619 45 329 3.0 8.0 0.00 0.00 0.00 99 1010.0
20260509045118 45 325 2.0 4.0 0.00 0.00 0.00 99 1010.0
20260509044617 45 331 3.0 5.0 0.00 0.00 0.00 99 1010.0
20260509044119 45 322 3.0 7.0 0.00 0.00 0.00 99 1009.9
20260509043619 45 310 3.0 4.0 0.00 0.00 0.00 99 1009.9
20260509043119 45 328 3.0 6.0 0.00 0.00 0.00 99 1009.9
20260509042620 46 328 2.0 4.0 0.00 0.00 0.00 99 1009.8
20260509042117 46 328 3.0 4.0 0.00 0.00 0.00 99 1009.8
20260509041618 46 333 3.0 6.0 0.00 0.00 0.00 99 1009.8
20260509041118 46 325 3.0 5.0 0.00 0.00 0.00 99 1009.9
20260509040618 46 327 2.0 2.0 0.00 0.00 0.00 99 1009.9
20260509040119 46 326 3.0 5.0 0.00 0.00 0.00 99 1010.2
20260509035618 46 323 3.0 5.0 0.00 0.00 0.11 99 1010.3
20260509035118 46 318 2.0 3.0 0.00 0.00 0.11 99 1010.8
20260509034617 47 327 2.0 4.0 0.00 0.00 0.11 99 1011.7
20260509034118 47 313 4.0 8.0 0.00 0.00 0.11 99 1012.4
20260509033617 47 328 3.0 5.0 0.01 0.00 0.11 99 1012.9
20260509033117 47 329 2.0 4.0 0.01 0.00 0.11 99 1013.1
20260509032617 47 306 2.0 4.0 0.01 0.00 0.11 97 1013.4
20260509032119 47 307 2.0 2.0 0.02 0.00 0.11 98 1013.4
20260509031617 47 308 1.0 2.0 0.02 0.00 0.11 98 1013.4
20260509031118 47 310 2.0 2.0 0.02 0.00 0.11 98 1013.5
20260509030617 47 308 2.0 4.0 0.02 0.00 0.11 99 1013.4
20260509030118 47 279 2.0 2.0 0.01 0.00 0.11 99 1013.1
20260509025617 47 293 2.0 4.0 0.01 0.00 0.11 100 1013.1
20260509025119 47 287 1.0 2.0 0.01 0.00 0.11 99 1012.8
20260509024618 47 299 2.0 3.0 0.01 0.00 0.11 99 1012.8
20260509024119 47 323 2.0 4.0 0.01 0.00 0.11 99 1012.5
20260509023617 47 332 2.0 4.0 0.01 0.00 0.11 99 1012.6
20260509023120 48 342 3.0 5.0 0.01 0.00 0.11 100 1012.9
20260509022619 48 324 2.0 5.0 0.00 0.00 0.11 98 1013.3
20260509022119 48 296 3.0 6.0 0.00 0.00 0.10 96 1013.5
20260509021618 48 308 2.0 3.0 0.00 0.00 0.10 95 1013.7
20260509021118 49 326 2.0 2.0 0.00 0.00 0.10 94 1013.7
20260509020618 49 306 3.0 4.0 0.00 0.00 0.10 94 1013.7
20260509020117 49 311 1.0 2.0 0.00 0.00 0.10 93 1013.7
20260509015618 49 317 1.0 2.0 0.00 0.00 0.10 93 1013.6
20260509015122 49 253 1.0 2.0 0.00 0.00 0.10 92 1013.6
20260509014617 49 314 1.0 2.0 0.00 0.00 0.10 93 1013.5
20260509014117 49 339 1.0 3.0 0.00 0.00 0.10 93 1013.6
20260509013618 49 345 2.0 2.0 0.00 0.00 0.10 94 1013.5
20260509013120 48 257 2.0 3.0 0.00 0.00 0.10 93 1013.5
20260509012617 48 254 1.0 2.0 0.00 0.00 0.10 95 1013.4
20260509012117 48 293 2.0 3.0 0.00 0.00 0.10 94 1013.3
20260509011617 48 261 2.0 2.0 0.00 0.00 0.10 94 1013.1
20260509011117 48 310 2.0 2.0 0.00 0.00 0.10 95 1013.1
20260509010619 48 306 2.0 3.0 0.00 0.00 0.10 95 1013.1
20260509010119 48 301 2.0 3.0 0.00 0.00 0.10 95 1013.0
20260509005617 48 297 2.0 3.0 0.00 0.00 0.10 96 1012.9
20260509005117 47 323 1.0 2.0 0.00 0.00 0.10 97 1012.8
20260509004617 47 302 2.0 3.0 0.00 0.00 0.10 97 1012.8
20260509004117 47 311 2.0 2.0 0.00 0.00 0.10 98 1012.7
20260509003617 47 305 1.0 3.0 0.00 0.00 0.10 98 1012.7
20260509003118 47 336 1.0 2.0 0.00 0.00 0.10 99 1012.6
20260509002619 47 298 3.0 5.0 0.00 0.00 0.10 99 1012.5
20260509002119 47 318 1.0 2.0 0.00 0.00 0.10 99 1012.5
20260509001618 47 288 1.0 2.0 0.00 0.00 0.10 98 1012.5
20260509001118 47 309 1.0 2.0 0.00 0.00 0.10 99 1012.5
20260509000617 47 328 1.0 2.0 0.00 0.00 0.10 99 1012.5
20260509000117 47 326 2.0 3.0 0.00 0.00 0.10 98 1012.5
20260508235617 47 308 4.0 5.0 0.00 0.00 0.10 98 1012.5
20260508235120 47 305 2.0 4.0 0.00 0.00 0.10 99 1012.4
20260508234617 47 290 2.0 3.0 0.00 0.00 0.10 99 1012.3
20260508234117 47 352 0.0 0.0 0.00 0.00 0.10 99 1011.9
20260508233617 47 327 2.0 3.0 0.01 0.00 0.10 100 1011.9
20260508233117 47 312 2.0 3.0 0.01 0.00 0.10 99 1011.4
20260508232617 47 327 2.0 4.0 0.01 0.00 0.10 99 1011.0
20260508232120 47 311 2.0 3.0 0.01 0.00 0.10 99 1011.2
20260508231617 47 287 2.0 3.0 0.02 0.00 0.10 99 1011.1
20260508231117 48 300 2.0 3.0 0.03 0.00 0.10 99 1011.8
20260508230618 48 311 1.0 1.0 0.03 0.00 0.10 99 1011.4
20260508230118 48 283 1.0 2.0 0.03 0.00 0.10 99 1011.6
20260508225617 47 313 1.0 2.0 0.03 0.00 0.10 99 1011.8
20260508225117 47 293 1.0 2.0 0.04 0.00 0.10 99 1011.7
20260508224618 47 331 2.0 2.0 0.04 0.00 0.10 99 1011.7